EST,Max TemperatureF,Mean TemperatureF,Min TemperatureF,Max Dew PointF,MeanDew PointF,Min DewpointF,Max Humidity, Mean Humidity, Min Humidity, Max Sea Level PressureIn, Mean Sea Level PressureIn, Min Sea Level PressureIn, Max VisibilityMiles, Mean VisibilityMiles, Min VisibilityMiles, Max Wind SpeedMPH, Mean Wind SpeedMPH, Max Gust SpeedMPH,PrecipitationIn, CloudCover, Events, WindDirDegrees
2013-12-1,28,24,19,21,18,12,93,80,69,30.38,30.25,30.18,10,9,2,8,3,,0.00,7,,109
2013-12-2,33,28,23,30,24,19,93,84,80,30.18,30.07,29.96,10,6,1,7,4,,0.01,8,,25
2013-12-3,35,34,32,32,30,28,93,88,81,29.96,29.89,29.81,10,5,0,10,2,,0.00,8,,335
2013-12-4,35,32,30,28,26,23,87,76,70,30.17,29.93,29.78,10,9,2,20,11,29,0.00,8,,320
2013-12-5,42,34,26,37,26,21,93,79,74,30.23,30.08,29.81,10,10,5,17,8,23,0.00,8,,150
2013-12-6,44,38,30,39,28,10,87,70,41,29.97,29.86,29.77,10,10,5,16,8,23,0.00,5,,229
2013-12-7,30,24,17,12,5,1,58,45,31,30.23,30.07,29.98,10,10,10,21,12,28,0.00,0,,273
2013-12-8,21,14,5,5,1,-2,85,55,36,30.53,30.39,30.23,10,10,10,21,9,24,0.00,0,,280
2013-12-9,17,10,3,14,6,0,92,75,53,30.52,30.21,29.78,10,9,2,12,4,17,0.00,6,,148
2013-12-10,30,21,12,18,10,1,86,64,36,29.77,29.68,29.64,10,10,5,20,8,26,0.00,4,,238
2013-12-11,21,12,3,9,3,-2,79,63,46,29.98,29.88,29.72,10,10,2,16,8,23,0.00,3,,255
2013-12-12,6,0,-5,0,-10,-15,84,65,51,30.14,30.03,29.87,10,10,4,16,8,21,0.00,3,,296
2013-12-13,8,0,-9,1,-8,-20,92,63,33,30.27,29.92,29.73,10,8,1,17,6,20,0.00,4,,327
2013-12-14,3,-5,-13,-9,-20,-29,84,51,25,30.55,30.48,30.28,10,10,10,14,5,17,0.00,0,,275
2013-12-15,14,7,0,10,-3,-31,100,67,21,30.47,29.84,29.49,10,4,0,16,6,20,0.00,7,,20
2013-12-16,12,2,-7,9,-1,-17,100,71,57,30.04,29.73,29.52,10,8,1,21,8,24,0.00,4,,256
2013-12-17,6,-6,-18,-6,-17,-31,100,56,25,30.25,30.17,30.05,10,10,3,8,3,,0.00,1,,221
2013-12-18,15,3,-9,9,-9,-31,100,62,21,30.12,29.91,29.78,10,8,2,6,1,,0.00,4,,9
2013-12-19,19,10,0,16,10,-6,100,79,53,30.03,29.88,29.77,10,8,1,9,4,,0.00,7,,253
2013-12-20,17,12,8,12,6,-2,92,78,62,30.17,30.08,30.00,10,6,1,10,7,,0.00,8,,17
2013-12-21,19,16,12,14,11,9,86,81,73,30.06,29.94,29.84,10,6,0,13,5,,0.00,8,,349
2013-12-22,19,17,15,16,11,9,86,80,73,30.14,30.10,30.03,10,4,0,14,10,16,0.00,8,,25
2013-12-23,21,18,15,19,17,10,93,88,79,30.14,30.06,30.00,10,5,1,7,2,,0.00,8,,37
2013-12-24,23,18,12,18,11,7,86,77,63,30.09,30.04,30.00,10,8,0,0,0,,0.00,7,,-1
2013-12-25,12,-3,-18,9,-4,-29,100,71,45,30.48,30.32,30.04,10,9,2,16,9,22,0.00,2,,337
2013-12-26,14,-1,-16,10,-3,-27,100,70,25,30.46,30.26,30.06,10,6,0,8,2,,0.00,6,,127
2013-12-27,21,6,-9,14,-1,-29,100,68,23,30.09,30.04,29.99,10,9,1,9,2,,0.00,3,,233
2013-12-28,30,14,-2,23,14,-17,100,78,50,30.03,29.88,29.78,10,10,8,20,5,20,0.00,7,,215
2013-12-29,21,14,6,16,2,-11,100,70,44,30.13,29.97,29.65,10,6,1,18,11,22,0.00,8,,17
2013-12-30,21,10,-4,18,4,-20,100,76,42,30.04,29.74,29.54,10,9,1,20,4,28,0.00,6,,266
2013-12-31,0,-6,-13,-2,-18,-45,100,56,11,30.10,30.04,29.99,10,9,3,9,3,,0.00,2,,307